Weather History for Willimantic, CT

Change the Weather History Date:

Sunday, December 15, 2013

  Actual Average Record
Temperature  
Mean Temperature 30 °F -  
Max Temperature 36 °F 39 °F 61 °F (2008)
Min Temperature 19 °F 20 °F -8 °F (1960)
Degree Days  
Heating Degree Days 34    
Moisture  
Dew Point 27 °F    
Average Humidity 84    
Maximum Humidity 92    
Minimum Humidity 66    
Precipitation  
Precipitation 0.37 in - - ()
Sea Level Pressure  
Sea Level Pressure 29.62 in    
Wind  
Wind Speed 11 mph (North)    
Max Wind Speed 15 mph    
Max Gust Speed 26 mph    
Visibility 6 miles    
Events Rain , Snow    
Averages and records for this station are not official NWS values.
T = Trace of Precipitation, MM = Missing Value Source: NWS Daily Summary

Daily Weather History Graph

Daily Weather History Graph

Search for Another Location

Airport:

Trip Planner

Search our weather history database for the weather conditions in past years. The results will help you decide how hot, cold, wet, or windy it might be!

Date:

Astronomy

Dec. 15, 2013 Rise Set
Actual Time 7:09 AM EST 4:18 PM EST
Civil Twilight 6:37 AM EST 4:50 PM EST
Nautical Twilight 6:02 AM EST 5:25 PM EST
Astronomical Twilight 5:28 AM EST 5:59 PM EST
Moon 3:22 PM EST (12/15) 5:21 AM EST (12/15)
Length of Visible Light 10h 13m
Length of Day
9h 09m
Waxing Gibbous, 97% of the Moon is Illuminated
Dec 15
Waxing Gibbous
Dec 17
Full
Dec 25
Last Quarter
Jan 1
New
Jan 7
First Quarter

Hourly Weather History & Observations

Time (EST) Temp. Windchill Dew Point Humidity Pressure Visibility Wind Dir Wind Speed Gust Speed Precip Events Conditions
12:26 AM 27.0 °F 16.1 °F 24.1 °F 89% 29.99 in 1.2 mi NE 12.7 mph - 0.00 in Snow Light Snow
12:52 AM 27.0 °F 16.1 °F 24.1 °F 89% 29.97 in 1.2 mi NE 12.7 mph - 0.01 in Snow Light Snow
1:52 AM 28.9 °F 17.7 °F 26.1 °F 89% 29.88 in 1.2 mi ENE 15.0 mph 20.7 mph 0.02 in Snow Light Snow
2:15 AM 30.0 °F 20.0 °F 27.0 °F 88% 29.82 in 1.5 mi ENE 12.7 mph 19.6 mph 0.01 in Snow Light Snow
2:23 AM 30.9 °F 21.7 °F 27.0 °F 85% 29.81 in 2.0 mi ENE 11.5 mph 21.9 mph 0.02 in Snow Light Snow
2:42 AM 30.9 °F 20.7 °F 28.0 °F 89% 29.78 in 3.0 mi ENE 13.8 mph 26.5 mph 0.02 in   Overcast
2:52 AM 32.0 °F 22.5 °F 28.0 °F 85% 29.77 in 3.0 mi ENE 12.7 mph 19.6 mph 0.03 in   Overcast
3:21 AM 33.1 °F 24.4 °F 28.9 °F 85% 29.70 in 5.0 mi ENE 11.5 mph 24.2 mph 0.03 in Rain Light Freezing Rain
3:52 AM 34.0 °F 24.6 °F 30.0 °F 85% 29.65 in 3.0 mi NE 13.8 mph 21.9 mph 0.08 in Rain Light Freezing Rain
4:01 AM 34.0 °F 25.5 °F 30.0 °F 85% 29.62 in 2.5 mi NE 11.5 mph 21.9 mph 0.04 in Rain Heavy Rain
4:08 AM 34.0 °F 24.2 °F 30.9 °F 89% 29.60 in 3.0 mi NNE 15.0 mph 23.0 mph 0.07 in Rain Rain
4:35 AM 34.0 °F 25.0 °F 30.9 °F 89% 29.57 in 2.5 mi NNE 12.7 mph - 0.16 in Rain Rain
4:52 AM 34.0 °F 25.0 °F 32.0 °F 92% 29.59 in 2.5 mi NNE 12.7 mph 19.6 mph 0.19 in Rain Rain
5:06 AM 35.1 °F 26.9 °F 30.9 °F 85% 29.56 in 3.0 mi NE 11.5 mph 26.5 mph 0.02 in Rain Light Rain
5:15 AM 35.1 °F 27.9 °F 30.9 °F 85% 29.54 in 3.0 mi ENE 9.2 mph 26.5 mph 0.03 in Rain Light Rain
5:52 AM 35.1 °F 26.4 °F 32.0 °F 89% 29.52 in 8.0 mi NE 12.7 mph - 0.03 in Rain Light Rain
6:52 AM 36.0 °F 26.7 °F 32.0 °F 86% 29.47 in 7.0 mi NE 15.0 mph - 0.00 in Rain Light Rain
7:34 AM 35.1 °F 29.3 °F 33.1 °F 92% 29.46 in 9.0 mi NW 6.9 mph - 0.00 in   Overcast
7:52 AM 34.0 °F 26.6 °F 32.0 °F 92% 29.45 in 2.0 mi North 9.2 mph - 0.00 in Rain Light Rain
8:17 AM 33.1 °F 25.5 °F 30.9 °F 92% 29.47 in 3.0 mi NNW 9.2 mph - 0.01 in Rain Light Rain
8:30 AM 32.0 °F 23.0 °F 30.0 °F 92% 29.47 in 2.5 mi NNW 11.5 mph - 0.01 in Rain Light Rain
8:52 AM 32.0 °F 24.2 °F 30.0 °F 92% 29.48 in 2.0 mi North 9.2 mph - 0.01 in Rain Light Freezing Rain
9:06 AM 33.1 °F 26.9 °F 30.0 °F 89% 29.47 in 4.0 mi North 6.9 mph - 0.00 in   Overcast
9:15 AM 33.1 °F 27.7 °F 30.9 °F 92% 29.49 in 6.0 mi NNW 5.8 mph - 0.00 in   Overcast
9:52 AM 34.0 °F 26.0 °F 30.0 °F 85% 29.48 in 10.0 mi NNW 10.4 mph 19.6 mph 0.00 in   Overcast
10:38 AM 30.0 °F 21.7 °F 27.0 °F 88% 29.47 in 10.0 mi WNW 9.2 mph - N/A   Overcast
10:52 AM 30.0 °F 20.5 °F 26.1 °F 85% 29.49 in 10.0 mi West 11.5 mph - N/A   Overcast
11:52 AM 27.0 °F 17.3 °F 23.0 °F 85% 29.50 in 10.0 mi WNW 10.4 mph - N/A   Overcast
12:30 PM 27.0 °F 19.5 °F 21.9 °F 81% 29.50 in 10.0 mi NNW 6.9 mph - N/A   Overcast
12:52 PM 28.0 °F 20.0 °F 21.9 °F 78% 29.52 in 10.0 mi WNW 8.1 mph - N/A   Overcast
1:31 PM 28.9 °F 23.9 °F 23.0 °F 78% 29.53 in 10.0 mi Variable 4.6 mph - N/A   Overcast
1:50 PM 30.2 °F - 24.8 °F 80% 29.53 in 10.0 mi North - - N/A   Overcast
1:52 PM 30.0 °F 23.2 °F 23.0 °F 75% 29.54 in 10.0 mi NW 6.9 mph - N/A   Overcast
2:45 PM 30.9 °F 25.2 °F 25.0 °F 79% 29.56 in 10.0 mi West 5.8 mph - N/A   Mostly Cloudy
2:52 PM 30.9 °F 25.2 °F 25.0 °F 79% 29.57 in 10.0 mi West 5.8 mph - N/A   Mostly Cloudy
3:52 PM 32.0 °F 24.8 °F 24.1 °F 73% 29.62 in 10.0 mi WNW 8.1 mph - N/A   Partly Cloudy
4:52 PM 32.0 °F 25.6 °F 21.9 °F 66% 29.66 in 10.0 mi NW 6.9 mph - N/A   Partly Cloudy
5:52 PM 30.0 °F 26.5 °F 21.9 °F 72% 29.69 in 10.0 mi West 3.5 mph - N/A   Partly Cloudy
6:52 PM 30.9 °F 24.3 °F 21.9 °F 69% 29.71 in 10.0 mi West 6.9 mph - N/A   Clear
7:52 PM 30.0 °F 25.2 °F 21.0 °F 69% 29.74 in 10.0 mi West 4.6 mph - N/A   Clear
8:52 PM 28.0 °F 22.8 °F 19.0 °F 69% 29.76 in 10.0 mi SW 4.6 mph - N/A   Clear
9:52 PM 25.0 °F - 19.9 °F 81% 29.77 in 10.0 mi Calm Calm - N/A   Clear
10:52 PM 25.0 °F 20.7 °F 19.9 °F 81% 29.78 in 10.0 mi SSW 3.5 mph - N/A   Scattered Clouds
11:52 PM 19.9 °F - 17.1 °F 89% 29.78 in 8.0 mi Calm Calm - N/A   Overcast